Date,TemperatureHighF,TemperatureAvgF,TemperatureLowF,DewpointHighF,DewpointAvgF,DewpointLowF,HumidityHigh,HumidityAvg,HumidityLow,PressureMaxIn,PressureMinIn,WindSpeedMaxMPH,WindSpeedAvgMPH,GustSpeedMaxMPH,PrecipitationSumIn
2013-11-1,61.0,57.3,49.0,-99.9,-99.9,-99.9,0,0,100,0.00,40.00,0,-999,0,1.06
2013-11-2,56.0,44.3,34.0,-99.9,-99.9,-99.9,0,0,100,0.00,40.00,0,-999,0,0.02
2013-11-3,38.0,31.8,25.0,-99.9,-99.9,-99.9,0,0,100,0.00,40.00,0,-999,0,0.02
2013-11-4,37.0,27.3,18.0,-99.9,-99.9,-99.9,0,0,100,0.00,40.00,0,-999,0,0.00
2013-11-5,44.0,31.5,21.0,-99.9,-99.9,-99.9,0,0,100,0.00,40.00,0,-999,0,0.00
2013-11-6,52.0,42.7,32.0,-99.9,-99.9,-99.9,0,0,100,0.00,40.00,0,-999,0,0.00
2013-11-7,54.0,45.1,34.0,-99.9,-99.9,-99.9,0,0,100,0.00,40.00,0,-999,0,0.36
2013-11-8,34.0,31.5,30.0,-99.9,-99.9,-99.9,0,0,100,0.00,40.00,0,-999,0,0.02
2013-11-9,34.0,30.5,24.0,-99.9,-99.9,-99.9,0,0,100,0.00,40.00,0,-999,0,0.01
2013-11-10,43.0,35.8,29.0,-99.9,-99.9,-99.9,0,0,100,0.00,40.00,0,-999,0,0.07
2013-11-11,39.0,36.0,31.0,-99.9,-99.9,-99.9,0,0,100,0.00,40.00,0,-999,0,0.01
2013-11-12,37.0,25.8,21.0,-99.9,-99.9,-99.9,0,0,100,0.00,40.00,0,-999,0,0.01
2013-11-13,27.0,21.8,16.0,-99.9,-99.9,-99.9,0,0,100,0.00,40.00,0,-999,0,0.01
2013-11-14,41.0,31.7,26.0,-99.9,-99.9,-99.9,0,0,100,0.00,40.00,0,-999,0,0.00
2013-11-15,54.0,35.1,23.0,-99.9,-99.9,-99.9,0,0,100,0.00,40.00,0,-999,0,0.00
2013-11-16,53.0,37.0,29.0,-99.9,-99.9,-99.9,0,0,100,0.00,40.00,0,-999,0,0.00
2013-11-17,53.0,40.2,28.0,-99.9,-99.9,-99.9,0,0,100,0.00,40.00,0,-999,0,0.14
2013-11-18,55.0,49.1,37.0,-99.9,-99.9,-99.9,0,0,100,0.00,40.00,0,-999,0,0.53
2013-11-19,35.0,29.6,23.0,-99.9,-99.9,-99.9,0,0,100,0.00,40.00,0,-999,0,0.02
2013-11-20,34.0,24.2,17.0,-99.9,-99.9,-99.9,0,0,100,0.00,40.00,0,-999,0,0.01
2013-11-21,42.0,27.4,12.0,-99.9,-99.9,-99.9,0,0,100,0.00,40.00,0,-999,0,0.00
2013-11-22,42.0,37.0,33.0,-99.9,-99.9,-99.9,0,0,100,0.00,40.00,0,-999,0,0.12
2013-11-23,40.0,29.4,21.0,-99.9,-99.9,-99.9,0,0,100,0.00,40.00,0,-999,0,0.07
2013-11-24,19.0,13.0,7.0,-99.9,-99.9,-99.9,0,0,100,0.00,40.00,0,-999,0,0.04
2013-11-25,25.0,15.7,6.0,-99.9,-99.9,-99.9,0,0,100,0.00,40.00,0,-999,0,0.01
2013-11-26,30.0,26.2,21.0,-99.9,-99.9,-99.9,0,0,100,0.00,40.00,0,-999,0,0.21
2013-11-27,41.0,33.6,29.0,-99.9,-99.9,-99.9,0,0,100,0.00,40.00,0,-999,0,1.22
2013-11-28,28.0,18.5,11.0,-99.9,-99.9,-99.9,0,0,100,0.00,40.00,0,-999,0,0.06
2013-11-29,23.0,15.0,5.0,-99.9,-99.9,-99.9,0,0,100,0.00,40.00,0,-999,0,0.01
2013-11-30,23.0,17.7,1.0,-99.9,-99.9,-99.9,0,0,100,0.00,40.00,0,-999,0,0.00